User: anonymous   Login
Location: Stoke Bliss
(52.2667°N, 2.5167°W)
Time: 05:13:03
(UTC+00:00)
Language:

SKYMED 2 - Orbit

View from above orbital plane
View from above orbital plane
View from above satellite
View from above satellite

Ground track
Ground track

The orbit data is extracted from the following two-line orbital elements,

1 32376U 07059A   21128.50728400 -.00000083  00000-0 -38038-5 0  9992
2 32376  97.8906 312.9703 0001449  94.0427 266.0946 14.82154610725729
Epoch (UTC): 08 May 2021 12:10:29
Eccentricity: 0.0001449
inclination: 97.8906°
perigee height: 621 km
apogee height: 623 km
right ascension of ascending node: 312.9703°
argument of perigee: 94.0427°
revolutions per day: 14.82154610
mean anomaly at epoch: 266.0946°
orbit number at epoch: 72572

The dashed part of the orbit path shows where the satellite is in the earth's shadow,  

DLR